This demonstration page uses our WeatherBlox Daily Observations layout. Learn more.

Hourly Observations for August 7, 2016

Temp ( °F °C ) Dew Point ( °F °C ) Humidity (%) Winds ( mph kmh ) Pressure ( in mb ) Visibility ( mi km ) Precip ( " mm )
12:15 am 00:15 Cloudy 68 20 60 15.7 76 76 ESE 8 13 29.97 1015 10 16.09344 0 0
12:35 am 00:35 Cloudy 68 20 60 15.6 76 76 E 7 11 29.97 1015 10 16.09344 0 0
12:55 am 00:55 Cloudy 68 19.8 60 15.5 76 76 E 7 11 30 1016 10 16.09344 0 0
1:15 am 01:15 Cloudy 67 19.7 60 15.3 76 76 E 7 11 29.97 1015 10 16.09344 0 0
1:35 am 01:35 Cloudy 67 19.6 59 15.2 76 76 ESE 5 7 29.97 1015 10 16.09344 0 0
1:55 am 01:55 Cloudy 67 19.5 59 15.2 76 76 ESE 6 9 29.97 1015 10 16.09344 0 0
2:15 am 02:15 Cloudy 67 19.5 60 15.3 77 77 E 7 11 29.97 1015 10 16.09344 0 0
2:35 am 02:35 Cloudy 67 19.4 60 15.5 78 78 ESE 7 11 29.97 1015 10 16.09344 0 0
2:55 am 02:55 Cloudy with Light Rain 66 19 60 15.8 82 82 E 6 9 29.97 1015 10 16.09344 0 0
3:15 am 03:15 Cloudy 65 18.5 61 16.1 86 86 E 6 9 29.97 1015 10 16.09344 0 0
3:35 am 03:35 Cloudy 65 18.3 61 16.1 87 87 E 5 7 29.97 1015 10 16.09344 0 0
3:55 am 03:55 Cloudy 65 18.2 61 16.1 88 88 E 6 9 29.97 1015 10 16.09344 0 0
4:15 am 04:15 Cloudy 65 18.5 61 16 85 85 E 6 9 29.97 1015 10 16.09344 0 0
4:35 am 04:35 Cloudy 65 18.3 61 16.2 88 88 E 6 9 29.97 1015 10 16.09344 0 0
4:55 am 04:55 Cloudy 65 18.5 61 16.1 86 86 ESE 7 11 29.97 1015 10 16.09344 0 0
5:15 am 05:15 Cloudy 65 18.5 61 16 85 85 E 8 13 29.97 1015 10 16.09344 0 0
5:35 am 05:35 Cloudy 65 18.3 61 16.2 88 88 ESE 9 15 29.97 1015 10 16.09344 0 0
5:55 am 05:55 Cloudy 64 18 61 16.3 90 90 ESE 8 13 29.97 1015 10 16.09344 0 0
6:15 am 06:15 Cloudy 64 18 62 16.5 91 91 ESE 9 15 29.97 1015 10 16.09344 0 0
6:35 am 06:35 Cloudy 64 18 62 16.5 91 91 ESE 9 15 29.97 1015 10 16.09344 0 0
6:55 am 06:55 Cloudy with Rain 64 18 62 16.5 91 91 E 8 13 29.97 1015 10 16.09344 0 0
7:15 am 07:15 Cloudy with Light Rain 64 17.8 62 16.6 93 93 E 9 15 29.97 1015 10 16.09344 0 0
7:35 am 07:35 Cloudy with Light Drizzle 64 17.8 62 16.7 93 93 E 10 17 29.97 1015 7 11.265408 0 0
7:55 am 07:55 Cloudy 64 17.8 62 16.7 93 93 E 8 13 29.97 1015 10 16.09344 0 0
8:15 am 08:15 Cloudy with Light Rain 64 18 62 16.7 92 92 E 8 13 29.97 1015 10 16.09344 0 0
8:35 am 08:35 Cloudy with Light Drizzle 64 18 63 17 94 94 E 9 15 29.97 1015 5 8.04672 0 0
8:55 am 08:55 Cloudy 65 18.2 63 17 93 93 E 8 13 29.97 1015 10 16.09344 0 0
9:15 am 09:15 Cloudy 65 18.6 63 17 90 90 E 8 13 30 1016 10 16.09344 0 0
9:35 am 09:35 Cloudy 66 18.7 63 17 90 90 E 7 11 30 1016 10 16.09344 0 0
9:55 am 09:55 Cloudy 66 18.7 63 17 90 90 E 9 15 30 1016 10 16.09344 0 0
10:15 am 10:15 Cloudy 66 18.7 62 16.9 89 89 E 10 17 30 1016 10 16.09344 0 0
10:35 am 10:35 Cloudy 67 19.2 62 16.9 87 87 E 12 19 30 1016 10 16.09344 0 0
10:55 am 10:55 Cloudy 67 19.7 62 16.9 84 84 ESE 9 15 30 1016 10 16.09344 0 0
11:15 am 11:15 Cloudy 67 19.6 62 16.5 82 82 E 10 17 30 1016 10 16.09344 0 0
11:35 am 11:35 Cloudy 68 20.1 62 16.5 80 80 E 8 13 30 1016 10 16.09344 0 0
11:55 am 11:55 Cloudy 68 20.2 61 16.2 78 78 E 9 15 30 1016 10 16.09344 0 0
12:15 pm 12:15 Cloudy 69 20.7 62 16.5 77 77 E 9 15 29.97 1015 10 16.09344 0 0
12:35 pm 12:35 Cloudy 71 21.4 61 16.2 72 72 ESE 8 13 29.97 1015 10 16.09344 0 0
12:55 pm 12:55 Cloudy 71 21.7 61 16.2 71 71 ESE 7 11 29.97 1015 10 16.09344 0 0
1:15 pm 13:15 Cloudy 73 22.5 61 16 67 67 SE 10 17 29.97 1015 10 16.09344 0 0
1:35 pm 13:35 Cloudy 74 23.1 59 15.2 61 61 E 8 13 29.97 1015 10 16.09344 0 0
1:55 pm 13:55 Cloudy 74 23.5 60 15.5 61 61 ESE 7 11 29.94 1014 10 16.09344 0 0
2:15 pm 14:15 Cloudy 74 23.5 59 15.1 59 59 ESE 8 13 29.94 1014 10 16.09344 0 0
2:35 pm 14:35 Cloudy 75 23.7 58 14.7 57 57 SE 13 20 29.91 1013 10 16.09344 0 0
2:55 pm 14:55 Cloudy 74 23.4 59 15.1 60 60 SE 10 17 29.94 1014 10 16.09344 0 0
3:15 pm 15:15 Cloudy 74 23.5 60 15.6 61 61 SE 9 15 29.94 1014 10 16.09344 0 0
3:35 pm 15:35 Cloudy 75 23.7 62 16.8 65 65 SSE 10 17 29.91 1013 10 16.09344 0 0
3:55 pm 15:55 Cloudy 74 23.3 62 16.6 66 66 SSE 9 15 29.94 1014 10 16.09344 0 0
4:15 pm 16:15 Cloudy 74 23.3 63 17.3 69 69 SE 8 13 29.94 1014 10 16.09344 0 0
4:35 pm 16:35 Cloudy 73 22.8 62 16.9 69 69 SSE 8 13 29.94 1014 10 16.09344 0 0
4:55 pm 16:55 Cloudy 73 22.6 62 16.9 70 70 SE 7 11 29.94 1014 10 16.09344 0 0
5:15 pm 17:15 Cloudy 73 22.5 63 17.1 72 72 SE 8 13 29.94 1014 10 16.09344 0 0
5:35 pm 17:35 Cloudy 72 22.3 63 17.1 73 73 SE 8 13 29.94 1014 10 16.09344 0 0
5:55 pm 17:55 Cloudy 73 22.5 63 17.4 73 73 ESE 8 13 29.94 1014 10 16.09344 0 0
6:15 pm 18:15 Cloudy 72 22.4 64 17.5 74 74 SSE 9 15 29.94 1014 10 16.09344 0 0
6:35 pm 18:35 Cloudy 72 22.3 63 17.4 74 74 SE 7 11 29.94 1014 10 16.09344 0 0
6:55 pm 18:55 Cloudy 72 22.3 64 17.5 74 74 ESE 7 11 29.94 1014 10 16.09344 0 0
7:15 pm 19:15 Cloudy 72 22 63 17 73 73 ESE 9 15 29.94 1014 10 16.09344 0 0
7:35 pm 19:35 Cloudy 72 22 62 16.9 73 73 ESE 8 13 29.94 1014 10 16.09344 0 0
7:55 pm 19:55 Cloudy 71 21.8 63 17.1 75 75 SE 10 17 29.94 1014 10 16.09344 0 0
8:15 pm 20:15 Cloudy 71 21.5 62 16.8 75 75 ESE 9 15 29.94 1014 10 16.09344 0 0
8:35 pm 20:35 Cloudy 70 21.2 62 16.7 76 76 SE 9 15 29.94 1014 10 16.09344 0 0
8:55 pm 20:55 Cloudy 69 20.7 62 16.8 78 78 SE 8 13 29.94 1014 10 16.09344 0 0
9:15 pm 21:15 Cloudy 69 20.6 63 17 80 80 SE 8 13 29.94 1014 10 16.09344 0 0
9:35 pm 21:35 Cloudy 69 20.5 63 17 80 80 SE 8 13 29.94 1014 10 16.09344 0 0
9:55 pm 21:55 Cloudy 69 20.5 63 17 80 80 SE 9 15 29.94 1014 10 16.09344 0 0
10:15 pm 22:15 Cloudy 69 20.4 63 17 81 81 SE 8 13 29.94 1014 10 16.09344 0 0
10:35 pm 22:35 Cloudy 68 20.2 63 17 82 82 SE 7 11 29.94 1014 10 16.09344 0 0
10:55 pm 22:55 Cloudy 69 20.3 63 17 81 81 SE 10 17 29.94 1014 10 16.09344 0 0
11:15 pm 23:15 Cloudy 68 20.2 63 17 82 82 SE 8 13 29.94 1014 10 16.09344 0 0
11:35 pm 23:35 Cloudy 68 20 63 17.1 83 83 SE 7 11 29.97 1015 10 16.09344 0 0
11:55 pm 23:55 Cloudy 68 20 63 17.1 83 83 SE 7 11 29.97 1015 10 16.09344 0 0

Powered by AerisWeather